Terminal Aerodrome Forecast
Issued by NWS Wilmington, OH

Current Version | Previous Version | Graphics & Text | Print | Product List | Glossary On
Versions: 1 2 3 4 5 6 7 8 9 10 11 12 13 14 15 16 17
099
FTUS41 KILN 201132
TAFILN
TAF
KILN 201132Z 2012/2112 00000KT 1/4SM FG VV001
     FM201300 22005KT 4SM BR BKN005
     FM201400 23005KT P6SM BKN035
     FM201700 25006KT P6SM BKN050
     FM210500 VRB03KT 5SM BR SCT250
     FM210800 00000KT 1/2SM FG SCT002=

USA.gov is the U.S. government's official web portal to all federal, state and local government web resources and services.